Location: *
(46.1833°N, 22.7667°E)
Time: 14:01:13
(UTC+00:00)

NOSS 0 Rocket - Pass Details

Date: 17 September 2019
Orbit: 935 x 955 km, 70.0° (Epoch: 14 October)

Event Time Altitude Azimuth Distance (km) Brightness Sun altitude
Rises 17:28:26 0° 334° (NNW) 3,619 7.6 -9.6°
Reaches altitude 10° 17:31:05 10° 340° (NNW) 2,673 6.8 -10.0°
Maximum altitude 17:37:05 49° 55° (NE) 1,207 4.3 -11.0°
Enters shadow 17:42:26 13° 128° (SE) 2,447 5.5 -11.9°
